Dewpoint
54 54 53 53 54 54 54 54 54 54 54 54 54 55 55 56 56 56 57 57 57 58 58 59 60 60 60 61 61 61 60 55 52 45 36 38 59 61 65 62 64 65 64 48 35 27 24 23 23 23 32 34 36 31 35 35 37 31 24 26 22 21 17 21 17 20 20 19 19 20 18 18 17 19 21 19 19 22 25 29 31 55 56 56 56 51 57 60
54 54 53 53 53 53 53 54 54 54 54 54 54 54 55 55 55 56 56 57 57 58 59 59 59 60 60 61 61 61 56 50 48 42 34 57 64 63 64 65 64 64 62 42 33 30 25 22 21 27 30 29 39 31 35 32 35 27 24 26 21 24 18 20 20 23 17 19 19 19 19 17 17 19 20 16 17 22 23 23 42 52 55 56 57 58 60 60
55 54 53 53 53 53 53 53 53 53 53 54 53 54 54 55 55 56 56 57 57 58 59 59 60 60 60 61 60 60 55 49 42 35 38 61 63 62 64 65 64 65 46 40 43 27 25 21 26 22 28 25 29 30 33 31 28 31 22 16 22 28 21 22 21 20 20 19 18 18 19 16 16 18 22 16 16 20 21 25 28 48 53 54 55 58 59 60
54 54 53 53 52 52 53 53 53 53 53 53 53 54 54 54 55 56 56 56 57 58 58 59 59 60 60 60 60 56 48 39 33 40 50 61 60 63 64 63 65 62 54 50 45 43 35 27 24 20 26 25 27 32 26 32 20 24 28 24 22 25 20 19 24 23 22 18 18 18 17 15 19 18 16 15 15 16 17 22 26 33 53 55 56 58 58 59
54 54 53 52 52 53 53 53 53 53 53 53 53 53 54 54 55 55 56 56 57 57 58 58 59 59 60 60 59 54 33 15 20 47 52 60 61 63 63 63 64 54 49 51 38 37 34 28 14 23 24 17 27 24 23 27 25 25 21 27 24 23 21 21 23 25 25 18 16 16 14 15 20 19 16 14 12 14 14 15 22 27 56 56 56 57 57 58
54 54 53 52 52 52 52 52 52 52 52 53 53 53 54 54 55 55 56 56 57 57 58 58 59 59 60 59 54 51 23 4 29 50 60 62 61 63 63 63 64 48 37 31 30 29 21 20 15 17 12 20 21 20 19 22 24 19 19 21 22 22 20 22 27 24 19 18 15 13 16 19 18 19 19 14 13 14 18 16 18 27 56 57 58 57 57 57
54 54 53 52 52 52 52 52 52 52 52 52 53 53 54 54 54 55 55 56 57 57 58 58 59 59 59 59 54 37 28 24 46 48 58 63 63 62 63 63 62 42 33 27 28 26 26 20 15 22 14 17 17 17 19 20 19 22 17 20 21 24 23 25 22 24 21 18 18 20 21 19 19 17 19 15 16 16 20 25 25 25 56 57 57 57 57 57
55 54 53 52 52 52 52 52 52 52 52 52 52 53 54 54 54 55 55 56 56 57 58 58 58 59 59 54 36 35 33 29 42 51 58 64 51 56 57 49 43 40 30 28 30 27 22 18 14 20 11 11 15 18 21 15 15 16 19 22 22 23 24 24 23 23 22 22 23 22 19 19 19 17 21 19 19 19 19 29 26 38 55 56 56 56 56 56
55 54 53 52 52 52 52 51 51 52 52 52 52 53 53 54 54 54 55 55 56 57 58 58 58 59 58 49 39 25 26 38 49 50 54 47 44 47 47 43 39 36 35 33 32 31 24 21 19 15 10 13 16 18 18 15 15 16 15 23 23 22 23 23 22 23 22 25 22 19 20 21 22 22 20 20 20 20 26 30 31 45 54 55 55 56 55 55
54 53 53 52 52 52 51 52 52 52 52 52 52 52 53 54 54 55 55 55 56 56 57 58 58 59 53 38 27 14 30 48 49 47 46 42 42 39 42 44 36 34 31 33 29 26 24 20 24 23 19 16 20 19 20 12 11 20 22 23 21 22 23 23 21 22 23 24 22 18 20 21 22 20 15 19 21 24 28 30 31 42 51 54 54 55 55 55
54 54 53 52 51 51 51 51 51 51 52 52 52 52 53 53 54 54 55 55 56 56 57 58 58 57 51 30 15 10 45 49 51 46 45 42 40 38 42 42 39 38 35 38 31 30 28 29 35 31 23 13 21 20 19 20 23 23 23 22 22 23 26 24 22 23 23 21 22 20 21 22 23 22 18 18 21 24 25 29 30 32 40 47 51 54 54 54
54 54 53 52 51 50 50 51 51 51 51 52 52 52 53 53 54 54 55 56 56 56 57 57 58 55 42 35 17 19 45 47 46 42 45 44 41 43 46 41 38 41 35 32 37 42 37 35 33 17 11 20 19 22 22 25 23 23 20 17 21 21 22 23 21 22 23 22 23 23 15 15 22 20 20 21 25 23 23 26 29 30 30 36 43 50 51 52
54 53 53 51 51 51 50 51 51 51 51 51 52 52 52 53 53 54 55 55 56 56 57 58 58 56 36 18 26 43 49 48 45 42 43 45 44 43 44 44 43 39 35 34 36 39 42 36 25 21 26 17 18 12 22 24 24 22 21 20 19 20 19 20 23 24 23 23 25 18 8 10 12 19 21 21 25 22 22 23 25 28 29 31 33 39 45 47
54 53 52 52 51 50 51 51 51 51 51 52 52 52 53 53 53 54 55 55 57 56 57 57 53 50 28 13 41 48 48 50 44 42 43 45 40 43 41 44 47 41 43 38 39 39 42 36 27 25 27 20 19 30 23 22 21 18 20 23 20 16 15 20 23 24 21 24 24 10 11 9 13 13 15 18 21 21 20 21 22 24 24 26 29 33 36 39
54 53 52 51 51 50 51 51 51 52 52 52 53 53 53 54 54 54 55 56 57 58 58 58 52 33 21 29 42 45 58 49 42 42 46 42 39 37 34 37 36 35 34 35 34 41 37 34 27 23 22 26 23 18 19 19 19 16 10 13 23 13 18 24 26 21 19 21 21 15 16 14 13 14 20 25 26 22 20 21 22 23 23 23 24 26 29 32
53 52 52 51 50 50 51 52 53 52 53 53 53 55 56 55 56 55 55 55 56 56 55 54 54 31 21 22 45 54 45 38 37 44 48 48 43 36 38 35 40 35 31 30 39 35 33 29 24 24 24 23 19 19 19 19 20 23 13 17 16 20 20 20 24 27 23 24 24 15 10 15 17 21 22 23 23 23 21 21 22 22 22 23 23 24 25 26
53 52 50 51 51 51 51 53 54 54 54 54 54 55 56 56 57 57 57 57 57 56 55 42 52 38 12 24 36 40 33 40 47 44 43 43 43 39 38 36 31 31 33 35 34 33 30 26 28 25 23 21 22 19 15 18 19 18 22 15 25 14 15 18 22 24 27 23 21 22 18 17 16 18 20 22 26 23 21 21 21 22 22 22 23 23 24 25
54 53 53 53 52 52 52 53 54 54 54 55 56 55 54 56 57 56 57 56 55 53 53 53 37 21 15 31 31 33 43 42 44 42 43 43 41 36 33 30 32 31 31 29 29 26 31 25 27 22 24 20 20 22 16 10 17 18 18 16 16 20 20 18 21 21 24 23 21 22 21 20 20 21 22 22 23 24 23 22 22 22 22 23 23 23 23 24
54 54 54 54 54 54 54 55 55 55 55 55 56 57 57 57 54 52 52 50 26 23 24 29 13 15 18 17 34 44 45 45 44 40 35 40 42 37 36 35 34 28 29 26 26 26 31 30 29 22 18 19 19 19 22 22 22 20 22 20 22 15 19 20 21 24 24 22 22 21 20 20 20 20 21 21 22 23 23 23 23 23 22 22 22 23 24 25
54 55 55 55 55 54 55 55 55 55 55 53 51 52 47 40 40 39 40 41 34 19 21 25 28 31 38 39 41 42 46 45 30 36 42 43 38 35 32 34 36 30 25 27 30 29 34 24 21 18 18 18 19 22 25 25 24 24 27 25 22 22 21 23 25 25 25 20 20 21 21 21 21 21 21 21 21 21 21 21 22 23 23 23 23 23 23 24
56 55 55 56 56 56 56 56 55 56 56 52 52 42 27 35 25 24 34 37 38 36 32 27 28 34 37 42 42 39 31 33 37 38 42 46 36 31 30 30 27 27 30 31 28 29 32 23 22 25 22 20 20 21 21 21 22 19 23 22 21 22 18 21 24 25 26 18 18 21 21 20 19 19 18 18 18 17 17 18 19 20 21 23 24 24 24 24
57 57 57 57 57 56 56 56 57 56 55 52 51 45 37 34 34 36 25 14 25 37 35 37 36 38 39 38 40 41 38 33 35 37 43 40 35 27 29 29 26 24 30 30 30 28 26 25 24 26 28 25 22 21 21 21 24 28 19 24 20 20 23 23 24 25 26 20 18 20 21 19 19 19 19 19 19 19 19 18 18 18 19 21 23 24 24 26
57 57 57 57 57 57 57 57 57 56 50 48 47 43 42 43 44 47 33 19 22 36 29 33 35 37 37 37 38 41 28 28 28 35 38 40 33 31 30 27 26 28 30 27 26 27 23 27 27 29 27 22 22 22 22 24 25 22 19 17 17 22 22 20 21 22 23 20 19 24 23 22 22 22 23 23 23 22 23 22 22 23 21 20 20 22 24 24
57 57 57 57 57 57 57 57 57 53 50 48 46 45 45 49 49 49 39 18 20 30 32 30 34 36 35 33 37 32 24 25 31 29 39 34 29 34 29 28 26 28 27 26 26 24 23 23 26 27 25 23 22 23 20 19 18 24 26 24 23 23 25 21 20 23 21 20 28 20 18 15 18 19 21 18 17 24 25 23 24 25 27 26 29 28 27 22
56 57 57 58 57 58 57 56 51 49 50 46 44 47 49 50 49 49 24 18 20 29 37 34 38 37 35 43 41 32 32 36 38 36 39 33 30 30 28 29 26 27 28 28 25 26 23 24 28 25 27 25 23 21 26 24 20 21 24 26 20 23 24 26 25 20 17 15 20 22 14 18 19 21 21 17 8 5 8 12 12 18 21 23 22 23 25 30
55 56 58 57 57 57 57 51 48 48 44 41 45 47 48 46 46 45 23 21 16 23 26 24 32 25 39 36 40 38 30 28 34 39 39 36 38 30 29 26 26 25 27 27 25 27 24 29 28 26 26 27 24 23 26 25 22 19 17 27 24 24 27 25 22 20 15 8 20 22 9 12 16 13 8 7 10 12 13 15 14 13 15 20 22 24 24 26
54 55 57 57 57 57 53 50 52 47 41 43 47 48 46 47 48 41 17 15 13 25 19 28 26 26 36 34 37 24 17 23 38 36 35 39 32 34 27 26 25 26 26 26 27 24 28 28 28 29 26 26 23 20 25 21 20 17 22 30 27 26 25 24 24 21 20 22 26 26 18 10 12 10 12 12 13 11 9 9 10 9 10 13 19 26 26 29
52 54 56 58 57 56 54 53 50 47 46 48 48 48 48 49 47 32 24 7 7 25 23 22 24 36 35 35 31 17 24 32 30 32 37 39 34 28 27 26 24 26 27 27 22 27 27 27 28 26 28 24 22 24 29 23 19 19 28 29 26 24 28 27 26 24 26 19 17 22 26 11 16 18 18 15 8 8 9 9 10 10 10 16 18 20 26 29
51 53 55 57 57 57 56 54 51 47 48 49 49 48 50 44 33 21 18 4 22 22 31 18 33 34 33 29 27 29 30 34 27 32 39 36 37 28 25 26 25 28 29 26 23 28 30 29 29 30 27 21 27 30 32 28 28 30 32 33 31 30 29 27 24 22 21 15 16 18 19 7 13 18 14 14 14 10 10 8 7 8 14 30 35 33 33 37
50 51 54 57 56 55 55 54 52 51 51 51 49 48 46 34 22 18 4 1 22 16 26 27 27 27 30 24 25 27 28 32 35 34 33 32 33 31 29 28 26 29 29 30 33 32 31 34 33 28 24 25 31 32 33 31 28 33 32 28 28 26 26 24 24 17 10 4 15 21 23 12 7 15 13 8 11 6 8 12 11 15 26 31 36 37 37 38
49 50 53 55 54 54 55 52 53 52 51 51 50 47 38 32 21 11 2 12 31 26 23 24 26 30 26 22 23 25 32 33 33 32 30 31 29 29 28 26 30 28 27 27 28 30 29 29 30 31 34 33 32 30 31 34 33 30 26 24 18 18 22 21 18 20 4 7 15 20 23 14 8 14 19 17 15 14 13 11 13 17 21 29 34 37 37 37
50 51 52 53 53 54 51 52 52 51 50 51 49 41 26 18 20 9 7 19 19 23 23 22 25 28 25 23 28 27 31 32 33 30 29 30 29 25 25 24 27 22 21 22 23 27 25 26 29 32 35 30 29 30 29 32 31 26 21 17 10 7 14 6 11 7 8 8 18 21 24 17 17 12 13 15 16 18 14 13 14 17 22 27 32 36 37 36
48 50 52 52 53 54 54 54 53 52 51 48 45 34 24 19 9 14 19 20 15 26 22 28 28 26 25 24 24 28 31 27 31 29 31 31 29 29 29 25 30 24 19 23 26 23 25 28 29 29 30 33 28 25 26 26 27 23 20 17 10 1 6 -1 4 6 8 14 18 21 22 17 17 15 20 18 17 17 18 16 18 20 25 30 33 36 37 37
48 51 48 51 51 53 54 54 53 53 50 47 39 29 24 13 13 31 19 20 23 29 26 28 26 24 22 20 24 29 23 24 30 29 29 30 28 26 27 27 27 24 25 24 24 24 15 17 25 28 26 31 27 26 27 25 28 23 23 16 15 12 6 -1 1 -3 7 13 16 22 9 15 5 8 17 19 21 21 21 21 23 27 30 32 34 36 37 37
50 51 50 51 53 54 54 52 53 53 50 44 35 26 20 15 17 17 17 23 27 29 27 27 25 25 24 24 24 26 27 26 30 29 29 28 26 26 25 25 27 27 26 22 23 21 20 21 23 29 29 31 29 31 29 28 26 25 25 20 10 10 17 -3 10 7 8 7 7 13 13 19 13 15 19 21 22 22 21 17 17 17 23 30 29 30 31 34
48 46 48 48 50 51 53 53 54 52 48 42 29 23 19 20 17 23 19 29 29 26 25 25 26 22 22 24 28 26 27 29 29 27 27 28 27 26 27 26 25 24 22 19 24 21 19 19 26 31 31 30 30 26 25 25 16 22 22 17 22 22 20 11 11 18 10 9 11 12 18 19 17 7 9 12 10 12 12 13 12 13 22 23 22 28 28 29
45 47 45 47 49 53 53 53 52 51 47 40 28 21 21 24 30 29 39 29 29 25 25 21 23 20 20 21 24 24 25 30 29 26 23 27 23 26 26 27 28 25 19 18 22 27 19 19 27 28 27 29 31 30 30 32 24 25 20 23 27 27 23 13 6 8 4 5 10 12 11 13 7 11 19 11 11 9 10 10 13 17 19 19 23 27 28 29
44 43 43 43 48 53 53 53 52 50 46 38 27 30 32 26 34 37 38 35 28 29 25 22 22 24 20 24 23 22 27 25 27 25 23 25 21 28 26 25 27 25 24 23 17 21 22 13 20 29 29 31 32 31 29 30 30 24 23 28 21 16 13 19 13 3 5 2 7 11 12 13 12 10 9 7 9 8 7 15 15 19 19 22 22 25 28 29
42 39 37 44 51 53 52 52 51 47 41 33 30 28 34 31 35 35 38 37 34 28 23 26 25 24 24 23 24 23 27 19 27 25 22 25 17 23 23 26 26 26 25 19 14 21 21 14 16 27 29 31 29 29 26 27 30 32 29 25 28 23 19 13 14 12 14 3 -1 11 3 5 17 14 9 6 7 9 6 17 17 19 21 21 21 26 29 30
37 32 33 46 52 52 52 51 48 45 40 33 31 29 35 34 35 36 37 34 33 30 28 27 31 25 25 24 26 22 27 23 26 26 23 25 20 25 24 25 23 27 25 20 18 29 19 15 9 23 27 27 26 27 26 28 27 26 25 23 25 22 24 23 18 14 9 1 1 2 6 11 17 14 9 8 7 8 9 19 23 22 21 22 23 24 25 29
38 32 33 47 51 52 50 48 44 38 35 37 37 34 36 34 37 37 38 37 37 38 36 33 30 24 27 27 26 27 26 26 26 25 23 24 20 17 26 25 28 25 24 24 22 24 18 13 14 25 26 25 26 28 27 29 27 26 25 24 25 23 17 11 17 18 9 6 6 -1 7 12 16 13 9 8 10 14 17 23 25 22 22 23 25 24 26 32
30 21 30 47 48 51 45 40 40 41 38 34 34 36 35 39 36 37 38 38 36 35 38 35 36 31 31 27 28 27 26 26 26 25 25 24 25 27 29 28 26 26 23 22 21 27 21 22 25 21 26 28 29 28 30 29 29 28 27 25 27 24 23 14 10 15 14 16 14 14 5 13 12 11 11 17 20 19 22 23 22 23 23 24 26 26 28 29
29 29 42 45 46 50 44 38 40 39 37 38 41 38 39 38 36 36 36 37 35 36 35 33 34 30 31 31 31 28 27 25 28 25 25 25 26 24 30 32 30 25 23 24 24 26 30 16 15 20 23 25 28 29 30 30 29 27 27 26 26 25 24 20 18 19 20 16 13 11 10 14 14 15 17 22 22 21 21 23 23 23 25 25 26 28 29 30
32 32 34 44 48 48 41 33 33 36 38 39 39 38 40 40 39 36 35 37 34 35 34 34 35 33 34 35 32 29 31 22 27 28 27 28 24 32 34 32 28 27 25 25 22 29 17 21 20 12 13 19 22 27 26 28 28 26 25 27 27 27 25 22 18 15 13 18 19 15 13 14 21 21 22 23 22 20 21 22 25 24 25 26 26 28 29 30
31 32 35 39 45 46 38 36 35 36 37 38 38 38 38 38 41 39 38 38 39 37 35 34 35 35 35 36 35 35 35 28 27 32 30 29 28 34 34 34 31 29 33 34 33 30 23 24 20 16 15 14 13 18 20 22 27 27 26 27 27 27 25 22 19 17 16 18 19 15 14 14 18 21 20 21 21 20 23 24 24 25 25 25 28 30 30 30
28 21 27 33 38 40 41 41 39 36 36 36 36 37 38 37 39 41 41 40 40 39 37 37 38 36 34 35 33 33 31 34 30 28 30 30 30 32 36 35 33 32 36 39 34 27 22 27 22 20 19 17 19 22 24 28 25 25 24 27 27 27 27 25 23 19 20 19 18 20 18 17 17 20 20 21 21 22 21 24 24 27 27 27 28 29 30 31
31 23 26 24 32 34 36 40 38 36 34 37 33 35 36 37 38 39 41 38 41 39 38 38 37 34 34 33 32 32 34 33 34 32 31 30 31 33 36 35 34 35 37 33 35 30 25 23 26 24 22 23 23 26 27 28 25 25 25 26 27 27 26 26 24 22 23 17 19 22 23 22 20 20 21 21 23 24 25 25 25 25 26 28 29 29 32 30
25 27 27 29 24 23 31 33 37 37 36 36 34 34 35 35 36 35 38 40 41 41 37 37 38 37 37 34 33 29 33 32 32 29 32 31 33 33 32 35 33 36 34 31 36 31 28 24 25 26 25 27 28 29 29 28 27 27 26 26 26 27 26 24 26 25 24 22 19 21 23 22 21 21 22 22 22 23 24 25 26 26 27 28 29 29 30 30
32 31 30 31 26 26 29 31 36 37 36 35 34 33 33 34 34 36 37 36 38 38 39 34 36 37 37 37 35 33 33 31 30 32 29 29 31 30 30 33 34 36 34 33 34 35 31 27 28 26 26 27 28 28 28 28 28 27 27 27 28 27 28 27 26 26 25 24 26 28 27 25 25 24 27 27 28 29 29 30 30 29 28 29 30 30 30 30
29 28 27 30 28 26 28 30 34 36 34 36 33 34 33 33 33 35 36 36 34 36 39 36 35 37 36 37 36 34 35 35 34 32 32 33 28 32 32 32 32 32 34 32 33 35 30 29 31 29 27 26 28 29 28 28 28 27 29 29 30 30 29 29 27 27 27 28 29 29 29 28 30 31 31 31 31 31 31 30 30 31 30 30 30 30 30 31
31 31 32 28 24 25 28 30 31 33 33 35 33 34 33 32 33 35 35 37 36 35 37 36 36 36 36 36 36 36 37 36 37 36 37 37 31 35 33 33 36 32 33 33 33 34 32 29 31 30 28 28 29 29 30 31 30 29 30 31 31 30 29 28 28 29 28 28 28 27 27 28 29 31 31 31 31 31 30 31 31 32 31 30 30 31 31 32
34 33 34 31 23 31 25 27 29 31 29 33 34 34 33 32 31 34 33 33 36 37 37 37 36 36 35 36 36 36 37 38 38 38 38 38 37 39 36 38 34 34 32 34 34 33 33 32 31 30 29 28 30 30 29 31 30 29 31 31 31 31 31 31 31 31 31 30 28 27 27 29 29 31 30 30 30 30 31 31 32 32 32 32 33 33 33 34